TimeAKDT,TemperatureF,Dew PointF,Humidity,Sea Level PressureIn,VisibilityMPH,Wind Direction,Wind SpeedMPH,Gust SpeedMPH,PrecipitationIn,Events,Conditions,WindDirDegrees,DateUTC
12:16 AM,33.8,28.4,81,29.82,6.0,East,21.9,29.9,N/A,,Overcast,100,2012-10-02 08:16:00
12:36 AM,33.8,28.4,81,29.81,8.0,East,24.2,29.9,N/A,,Overcast,100,2012-10-02 08:36:00
12:56 AM,33.8,28.4,81,29.81,6.0,ESE,20.7,29.9,N/A,,Overcast,110,2012-10-02 08:56:00
1:16 AM,33.8,30.2,87,29.80,8.0,ESE,19.6,27.6,N/A,,Overcast,110,2012-10-02 09:16:00
1:36 AM,33.8,30.2,87,29.80,10.0,ESE,24.2,29.9,N/A,,Overcast,110,2012-10-02 09:36:00
1:56 AM,33.8,30.2,87,29.80,10.0,ESE,23.0,32.2,N/A,,Overcast,110,2012-10-02 09:56:00
2:36 AM,33.8,30.2,87,29.79,10.0,ESE,20.7,32.2,N/A,,Overcast,110,2012-10-02 10:36:00
2:56 AM,35.6,30.2,81,29.79,10.0,ESE,25.3,31.1,N/A,,Overcast,110,2012-10-02 10:56:00
3:16 AM,35.6,30.2,81,29.78,10.0,ESE,20.7,28.8,N/A,,Overcast,110,2012-10-02 11:16:00
3:36 AM,35.6,30.2,81,29.78,10.0,ESE,23.0,29.9,N/A,,Overcast,110,2012-10-02 11:36:00
3:56 AM,35.6,30.2,81,29.78,10.0,ESE,21.9,28.8,N/A,,Overcast,110,2012-10-02 11:56:00
4:16 AM,35.6,30.2,81,29.78,10.0,ESE,20.7,28.8,N/A,,Overcast,110,2012-10-02 12:16:00
4:36 AM,35.6,30.2,81,29.78,10.0,ESE,17.3,24.2,N/A,,Overcast,110,2012-10-02 12:36:00
4:56 AM,35.6,32.0,87,29.78,10.0,ESE,11.5,-,N/A,,Overcast,120,2012-10-02 12:56:00
5:16 AM,35.6,32.0,87,29.78,10.0,ESE,11.5,-,N/A,,Overcast,120,2012-10-02 13:16:00
5:36 AM,35.6,32.0,87,29.77,10.0,ESE,15.0,-,N/A,,Overcast,120,2012-10-02 13:36:00
5:56 AM,37.4,33.8,87,29.77,10.0,ESE,18.4,23.0,N/A,,Overcast,120,2012-10-02 13:56:00
6:16 AM,37.4,33.8,87,29.77,10.0,ESE,17.3,26.5,N/A,,Overcast,120,2012-10-02 14:16:00
6:36 AM,37.4,33.8,87,29.76,10.0,SE,16.1,21.9,N/A,,Overcast,130,2012-10-02 14:36:00
6:56 AM,37.4,33.8,87,29.76,10.0,ESE,18.4,-,N/A,,Overcast,120,2012-10-02 14:56:00
7:16 AM,37.4,33.8,87,29.76,10.0,ESE,15.0,23.0,N/A,,Overcast,120,2012-10-02 15:16:00
7:36 AM,39.2,35.6,87,29.75,10.0,SE,20.7,29.9,N/A,,Overcast,130,2012-10-02 15:36:00
7:56 AM,39.2,35.6,87,29.75,10.0,SE,20.7,29.9,N/A,,Overcast,140,2012-10-02 15:56:00
8:16 AM,39.2,35.6,87,29.76,10.0,SE,18.4,26.5,N/A,,Overcast,140,2012-10-02 16:16:00
8:36 AM,39.2,35.6,87,29.75,10.0,SE,20.7,28.8,N/A,,Overcast,140,2012-10-02 16:36:00
8:56 AM,39.2,35.6,87,29.75,10.0,SE,19.6,27.6,N/A,,Overcast,140,2012-10-02 16:56:00
9:16 AM,39.2,35.6,87,29.75,10.0,SE,20.7,31.1,N/A,,Overcast,140,2012-10-02 17:16:00
9:36 AM,39.2,35.6,87,29.75,10.0,SE,23.0,27.6,N/A,,Overcast,140,2012-10-02 17:36:00
9:56 AM,39.2,35.6,87,29.74,10.0,SE,23.0,27.6,N/A,,Mostly Cloudy,130,2012-10-02 17:56:00
10:16 AM,39.2,35.6,87,29.74,10.0,SE,21.9,29.9,N/A,,Overcast,140,2012-10-02 18:16:00
10:36 AM,39.2,35.6,87,29.75,10.0,SE,21.9,27.6,N/A,,Overcast,140,2012-10-02 18:36:00
10:56 AM,39.2,35.6,87,29.75,10.0,SE,17.3,27.6,N/A,,Overcast,140,2012-10-02 18:56:00
11:16 AM,39.2,35.6,87,29.75,10.0,SE,23.0,29.9,N/A,,Overcast,140,2012-10-02 19:16:00
11:36 AM,39.2,35.6,87,29.75,10.0,SE,18.4,26.5,N/A,,Overcast,140,2012-10-02 19:36:00
11:56 AM,39.2,35.6,87,29.75,10.0,SSE,19.6,26.5,N/A,,Overcast,150,2012-10-02 19:56:00
12:16 PM,39.2,35.6,87,29.75,10.0,SE,21.9,27.6,N/A,,Mostly Cloudy,140,2012-10-02 20:16:00
12:36 PM,39.2,35.6,87,29.76,10.0,SE,17.3,31.1,N/A,,Overcast,140,2012-10-02 20:36:00
12:56 PM,39.2,35.6,87,29.76,10.0,SE,18.4,29.9,N/A,,Overcast,140,2012-10-02 20:56:00
1:16 PM,39.2,35.6,87,29.76,10.0,SE,20.7,26.5,N/A,,Overcast,140,2012-10-02 21:16:00
1:36 PM,39.2,35.6,87,29.76,10.0,SE,18.4,27.6,N/A,,Overcast,140,2012-10-02 21:36:00
1:56 PM,39.2,35.6,87,29.75,10.0,SE,23.0,32.2,N/A,,Mostly Cloudy,140,2012-10-02 21:56:00
2:16 PM,39.2,35.6,87,29.76,10.0,SE,19.6,27.6,N/A,,Overcast,140,2012-10-02 22:16:00
2:36 PM,39.2,35.6,87,29.76,10.0,SE,18.4,26.5,N/A,,Mostly Cloudy,140,2012-10-02 22:36:00
2:56 PM,39.2,35.6,87,29.76,10.0,SE,19.6,28.8,N/A,,Overcast,140,2012-10-02 22:56:00
3:16 PM,39.2,35.6,87,29.75,10.0,SE,19.6,29.9,N/A,,Overcast,140,2012-10-02 23:16:00
3:36 PM,39.2,37.4,93,29.75,10.0,SE,18.4,25.3,N/A,,Mostly Cloudy,140,2012-10-02 23:36:00
3:56 PM,41.0,37.4,87,29.75,10.0,SE,17.3,26.5,N/A,,Overcast,140,2012-10-02 23:56:00
4:16 PM,41.0,37.4,87,29.74,10.0,SE,20.7,27.6,N/A,,Overcast,140,2012-10-03 00:16:00
4:36 PM,41.0,37.4,87,29.74,10.0,SSE,21.9,26.5,N/A,,Overcast,150,2012-10-03 00:36:00
4:56 PM,41.0,37.4,87,29.74,10.0,SSE,21.9,28.8,N/A,,Overcast,150,2012-10-03 00:56:00
5:16 PM,41.0,37.4,87,29.74,10.0,SE,18.4,28.8,N/A,,Overcast,140,2012-10-03 01:16:00
5:36 PM,41.0,37.4,87,29.74,10.0,SE,19.6,25.3,N/A,,Overcast,140,2012-10-03 01:36:00
6:16 PM,41.0,37.4,87,29.74,10.0,SE,18.4,21.9,N/A,,Overcast,140,2012-10-03 02:16:00
6:36 PM,41.0,37.4,87,29.74,10.0,SE,20.7,-,N/A,,Overcast,140,2012-10-03 02:36:00
6:56 PM,39.2,37.4,93,29.75,10.0,SSE,17.3,25.3,N/A,,Overcast,150,2012-10-03 02:56:00
7:16 PM,39.2,37.4,93,29.75,9.0,SE,15.0,24.2,N/A,,Overcast,140,2012-10-03 03:16:00
7:36 PM,39.2,37.4,93,29.75,9.0,SSE,17.3,23.0,N/A,,Overcast,150,2012-10-03 03:36:00
7:56 PM,39.2,37.4,93,29.74,10.0,SSE,18.4,24.2,N/A,,Overcast,150,2012-10-03 03:56:00
8:16 PM,39.2,37.4,93,29.74,10.0,SSE,19.6,26.5,N/A,,Overcast,150,2012-10-03 04:16:00
8:36 PM,39.2,37.4,93,29.75,10.0,SE,16.1,-,N/A,,Overcast,140,2012-10-03 04:36:00
8:56 PM,39.2,37.4,93,29.75,10.0,SSE,17.3,24.2,N/A,,Overcast,150,2012-10-03 04:56:00
9:16 PM,39.2,37.4,93,29.75,10.0,SSE,15.0,21.9,N/A,,Overcast,150,2012-10-03 05:16:00
9:36 PM,39.2,37.4,93,29.75,10.0,SSE,17.3,-,N/A,,Overcast,150,2012-10-03 05:36:00
9:56 PM,39.2,37.4,93,29.75,10.0,SSE,17.3,-,N/A,,Overcast,150,2012-10-03 05:56:00
10:16 PM,39.2,37.4,93,29.75,10.0,SSE,16.1,-,N/A,,Overcast,150,2012-10-03 06:16:00
10:36 PM,39.2,37.4,93,29.76,10.0,SSE,17.3,-,N/A,,Overcast,150,2012-10-03 06:36:00
10:56 PM,39.2,37.4,93,29.77,10.0,SSE,15.0,20.7,N/A,,Overcast,150,2012-10-03 06:56:00
11:16 PM,39.2,37.4,93,29.77,10.0,SSE,13.8,21.9,N/A,,Overcast,160,2012-10-03 07:16:00
11:36 PM,39.2,37.4,93,29.78,10.0,SSE,12.7,18.4,N/A,,Overcast,160,2012-10-03 07:36:00
11:56 PM,39.2,37.4,93,29.78,10.0,SSE,13.8,18.4,N/A,,Overcast,150,2012-10-03 07:56:00